User: anonymous
Location: Arrakis Observatory
(44.1122°N, 95.7153°W)
Time: 08:30:50
(UTC-05:00)
Language:

Iridium 35 - Orbit

View from above orbital plane
View from above orbital plane
View from above satellite
View from above satellite

Ground track
Ground track

The orbit data is extracted from the following two-line orbital elements,

1 24966U 97056B   14293.30624717  .00000664  00000-0  22994-3 0   348
2 24966 086.3995 004.5292 0002240 109.9153 250.2285 14.34213880893375
Epoch (UTC): 20 October 2014 07:20:59
Eccentricity: 0.0002240
inclination: 86.3995°
perigee height: 776 km
apogee height: 779 km
right ascension of ascending node: 4.5292°
argument of perigee: 109.9153°
revolutions per day: 14.34213880
mean anomaly at epoch: 250.2285°
orbit number at epoch: 89337

The dashed part of the orbit path shows where the satellite is in the earth's shadow,  

DLR